Lid_Strength_Index
14 13 14 14 12 12 11 11 11 9 8 8 8 7 5 5 5 4 4 3 3 3 3 2 2 2 2
14 14 14 13 13 13 11 11 12 9 7 6 6 5 5 5 5 5 5 4 4 4 3 4 4 4 3
15 14 14 13 13 13 13 13 10 8 7 6 6 6 6 5 5 5 5 5 5 5 5 5 5 4 4
15 15 14 13 14 14 14 12 11 9 8 7 7 7 6 7 7 7 7 6 6 6 6 6 6 5 4
15 15 15 14 14 13 13 12 11 10 12 11 11 10 10 9 8 8 7 6 6 6 6 5 5 5 5
14 16 14 14 14 13 13 13 14 10 13 12 11 12 11 11 8 7 7 7 7 6 6 5 5 4 4
14 14 13 13 13 13 12 12 13 11 12 13 12 12 11 10 9 8 7 7 7 6 5 5 4 4 4
12 12 12 10 10 10 11 12 11 11 11 15 12 12 11 11 8 8 7 7 7 6 6 5 5 5 4
9 8 7 7 8 10 12 13 13 12 10 13 13 13 12 12 11 8 8 8 8 7 6 6 5 5 6
11 10 10 10 8 10 11 13 13 13 11 12 12 13 14 12 12 11 11 9 9 7 7 6 6 7 7
12 12 11 11 11 10 10 11 12 13 10 10 12 12 13 14 12 11 12 12 12 10 8 7 7 6 8
13 12 12 12 11 11 10 11 10 11 9 9 11 12 13 13 14 11 11 12 12 11 10 8 7 6 5
13 13 13 12 11 12 11 11 11 10 9 10 10 11 11 13 13 12 12 12 11 11 10 10 9 8 9
13 12 12 12 12 12 12 12 12 12 10 10 10 10 11 12 12 13 12 13 10 10 10 9 9 8 8
13 13 13 12 12 12 12 12 13 13 13 11 10 10 11 12 14 13 12 12 10 11 11 11 10 9 8
13 13 13 13 13 12 11 13 13 13 13 12 12 12 11 12 10 12 12 12 11 11 11 11 11 9 8
14 14 13 13 12 13 12 13 13 13 13 12 12 12 15 15 12 9 12 12 12 12 11 11 11 9 8